CDT,Max TemperatureF,Mean TemperatureF,Min TemperatureF,Max Dew PointF,MeanDew PointF,Min DewpointF,Max Humidity, Mean Humidity, Min Humidity, Max Sea Level PressureIn, Mean Sea Level PressureIn, Min Sea Level PressureIn, Max VisibilityMiles, Mean VisibilityMiles, Min VisibilityMiles, Max Wind SpeedMPH, Mean Wind SpeedMPH, Max Gust SpeedMPH,PrecipitationIn, CloudCover, Events, WindDirDegrees
2013-4-1,28,18,8,16,11,2,80,69,57,30.35,30.31,30.25,10,10,10,14,9,17,0.00,0,,300
2013-4-2,32,23,13,20,14,8,84,67,49,30.40,30.36,30.28,10,10,10,10,6,16,0.00,1,,310
2013-4-3,36,28,19,32,23,14,89,80,70,30.33,30.09,29.90,10,10,8,31,16,39,0.00,4,,185
2013-4-4,34,26,18,26,21,16,84,77,69,30.30,30.21,30.02,10,10,10,26,13,31,0.00,2,,342
2013-4-5,32,23,14,28,21,11,92,78,63,30.31,30.09,29.85,10,8,2,21,10,24,0.03,6,Snow,123
2013-4-6,36,33,30,31,29,26,92,87,82,29.86,29.76,29.67,10,10,10,20,10,24,0.01,8,,16
2013-4-7,35,33,31,32,29,27,92,84,75,29.90,29.84,29.79,10,6,1,12,5,14,0.10,8,Snow,56
2013-4-8,32,23,14,31,20,7,100,84,67,30.35,30.01,29.80,10,10,10,29,20,35,0.00,7,,359
2013-4-9,27,18,9,17,11,4,84,72,60,30.45,30.39,30.35,10,10,10,25,14,29,0.00,4,,345
2013-4-10,36,27,18,26,19,14,85,71,56,30.40,30.26,30.09,10,10,10,17,9,20,0.00,5,,351
2013-4-11,34,31,28,27,24,19,85,71,56,30.09,29.95,29.90,10,5,0,22,12,26,0.13,8,Fog-Snow,52
2013-4-12,33,28,23,27,26,23,92,82,72,29.93,29.90,29.86,10,5,1,20,12,22,0.06,8,Snow,14
2013-4-13,34,29,23,27,23,19,100,78,56,29.96,29.92,29.86,10,10,10,12,6,15,T,5,,45
2013-4-14,39,32,25,32,26,20,96,75,54,29.95,29.76,29.59,10,7,1,30,15,38,0.27,6,Rain-Snow,69
2013-4-15,35,33,31,34,30,28,100,93,85,29.98,29.62,29.47,10,4,0,26,19,33,0.08,8,Fog-Rain-Snow,10
2013-4-16,33,31,29,29,28,25,92,82,72,30.39,30.16,29.95,10,9,2,18,11,21,T,8,Snow,331
2013-4-17,36,33,29,29,27,24,92,84,75,30.40,30.29,30.17,10,8,2,15,7,17,0.02,8,Snow,338
2013-4-18,37,33,29,30,26,22,85,74,63,30.16,30.00,29.88,10,9,2,29,18,35,T,6,Snow,344
2013-4-19,34,29,24,22,21,18,81,70,58,30.09,29.96,29.86,10,10,10,31,18,37,0.00,1,,343
2013-4-20,34,27,20,24,18,13,84,65,45,30.23,30.19,30.11,10,10,10,17,8,24,0.00,3,,201
2013-4-21,41,36,31,34,30,24,96,83,70,30.16,30.00,29.92,10,8,1,22,15,28,0.08,7,Snow,216
2013-4-22,34,30,26,25,23,19,85,73,61,30.37,30.32,30.19,10,10,10,18,12,23,0.00,5,,330
2013-4-23,39,31,23,28,23,18,88,71,54,30.34,30.17,30.01,10,10,10,14,8,18,0.00,1,,278
2013-4-24,40,34,27,32,28,25,92,81,70,30.03,29.92,29.83,10,10,8,24,10,29,0.00,5,,261
2013-4-25,44,35,26,35,28,21,85,74,62,30.10,30.02,29.92,10,10,10,26,12,31,0.00,3,,205
2013-4-26,62,47,31,46,38,30,92,69,46,30.03,29.97,29.87,10,10,10,13,7,16,0.00,2,,210
2013-4-27,70,57,43,51,44,36,86,66,45,29.98,29.81,29.65,10,10,10,25,13,30,0.00,4,,195
2013-4-28,62,49,35,47,39,30,92,66,40,29.86,29.68,29.55,10,10,10,30,12,36,0.00,3,,270
2013-4-29,63,46,29,45,37,27,93,68,42,29.87,29.68,29.46,10,10,10,22,10,26,0.07,5,Rain,158
2013-4-30,53,42,31,47,40,23,100,81,61,30.04,29.58,29.35,10,8,2,36,18,46,0.76,7,Rain,303